www.pogodaiklimat.ru

Погода и климат >> Архив погоды >> Украина >> Николаев


АРХИВ ПОГОДЫ в Николаеве

Время (UTC), дата Ветер
(напр.,м/с)
 
Видим.   Явления Облачность Т
(С)
Тd
(С)
f
(%)
Тe
(С)
Тes
(С)
Комфортность P
(гПа)
Po
(гПа)
Тmin
(С)
Tmax
(С)
R
(мм)
R24
(мм)
S
(см)
00 14.06 С 5 40 км 5/0
[Ac trans]
+19.3 +15.6 79 +21 +21 комфорт 1015.3 1009.5
03 14.06 СВ 5 40 км 4/0
[Ac trans]
+19.7 +15.7 78 +22 +22 комфорт 1015.8 1010.0
06 14.06 СВ 5 50 км 6/0
[Ac trans Ci fib]
+24.9 +17.5 63 +29 +32 душно 1016.2 1010.5 +19.0
09 14.06 СВ 5 40 км 8/0
[Ac trans Ci fib]
+29.4 +17.6 49 +34 +41 очень
душно
1016.6 1011.0
12 14.06 В 4 50 км 6/3 1000 м
[Cu hum Ci fib]
+32.0 +15.8 38 +35 +41 очень
душно
1016.2 1010.6
15 14.06 В 4 50 км 6/0
[Ac trans Ci fib]
+31.6 +14.4 35 +33 +35 жарко 1015.5 1009.9
18 14.06 СВ 4 35 км 6/0
[Ac trans]
+25.2 +15.8 56 +28 +28 жарко 1015.9 1010.2 +32.4
21 14.06 СВ 4 40 км 8/0
[Ac trans]
+22.8 +18.2 75 +28 +28 душно 1016.8 1011.0
00 15.06 В 1 23 км 3/0
[Ac trans]
+20.4 +18.3 88 +25 +25 комфорт 1016.2 1010.4
03 15.06 С 3 14 км 3/0
[Ci fib]
+18.9 +17.4 91 +20 +21 тепло 1015.7 1009.9
06 15.06 С 3 35 км 3/0
[Ci fib]
+25.2 +18.9 68 +30 +37 душно 1015.8 1010.1 +18.6
09 15.06 СВ 3 50 км 5/3 1000 м
[Cu hum Ci fib]
+29.5 +15.7 43 +32 +42 душно 1015.1 1009.5
12 15.06 СВ 3 50 км 6/4 1000 м
[Cu hum Ci fib]
+30.6 +15.6 40 +33 +40 душно 1013.2 1007.6
15 15.06 СВ 6 50 км 5/3 1000 м
[Cu med, cong Ci fib]
+30.9 +15.2 39 +33 +34 душно 1012.2 1006.6
18 15.06 СВ 3 50 км 4/3 1000 м
[Cb calv Ci fib]
+25.6 +15.6 54 +29 +29 душно 1012.4 1006.7 +32.2
21 15.06 С 2 35 км 3/0
[Ci fib]
+23.6 +16.0 62 +27 +27 жарко 1012.7 1007.0
00 16.06 С 4 24 км ясно +20.5 +18.7 89 +24 +24 комфорт 1012.3 1006.5
03 16.06 С 3 25 км 3/0
[Ci fib]
+20.4 +18.6 89 +24 +25 комфорт 1012.2 1006.4
06 16.06 СВ 3 50 км 1/0
[Ci fib]
+27.8 +20.0 63 +34 +41 очень
душно
1012.6 1007.0 +19.9
09 16.06 СВ 6 50 км 3/3 1000 м
[Cu hum]
+31.4 +11.3 29 +32 +37 жарко 1012.5 1006.9
12 16.06 СВ 6 50 км 4/4 1000 м
[Cu med, cong]
+31.8 +13.1 32 +33 +36 жарко 1011.7 1006.1
15 16.06 СВ 4 50 км 8/4 1000 м
[Sc Ci fib]
+30.8 +14.2 36 +32 +34 жарко 1010.8 1005.2
18 16.06 СВ 3 50 км 8/0
[Ac trans Ci fib]
+26.5 +17.1 56 +30 +30 душно 1011.4 1005.7 +33.5
21 16.06 СВ 4 45 км 8/0
[Ac trans Ci fib]
+23.1 +16.0 64 +28 +28 душно 1012.4 1006.7
00 17.06 С 3 50 км 8/0
[Ci fib]
+19.3 +15.8 80 +21 +21 комфорт 1012.9 1007.1
03 17.06 С 3 50 км ясно +18.0 +14.4 79 +18 +19 по сезону 1013.9 1008.1
06 17.06 СВ 4 40 км 3/0
[Ci fib]
+24.6 +17.4 64 +29 +34 душно 1014.3 1008.6 +17.5
09 17.06 СВ 6 50 км 4/0
[Ci fib]
+28.8 +14.4 41 +31 +37 жарко 1014.2 1008.6
12 17.06 В 5 50 км 4/0
[Ci fib]
+29.8 +13.2 36 +31 +38 жарко 1013.9 1008.3
15 17.06 СВ 5 50 км ясно +29.8 +13.6 37 +31 +34 жарко 1013.1 1007.5
18 17.06 СВ 4 50 км ясно +25.4 +12.8 46 +27 +27 жарко 1013.9 1008.2 +31.0
21 17.06 СВ 3 40 км ясно +20.3 +12.9 62 +23 +23 комфорт 1015.0 1009.2
00 18.06 С 3 35 км ясно +18.9 +15.1 79 +20 +20 тепло 1015.0 1009.2
03 18.06 С 2 40 км ясно +17.9 +14.4 80 +18 +19 по сезону 1015.0 1009.1
06 18.06 В 2 50 км ясно +25.8 +14.2 49 +28 +37 жарко 1015.5 1009.8 +17.4
09 18.06 СЗ 2 50 км 1/1 1000 м
[Cu hum]
+29.0 +12.9 37 +30 +47 жарко 1015.2 1009.6
12 18.06 СВ 2 50 км 3/3 1000 м
[Sc diur, vesp]
+31.2 +11.9 31 +32 +42 жарко 1014.1 1008.5
15 18.06 СВ 5 50 км 3/3 1000 м
[Sc diur, vesp]
+31.2 +12.4 32 +32 +33 жарко 1012.7 1007.1
18 18.06 СВ 3 30 км 3/0
[Ci fib]
+26.1 +14.8 50 +29 +29 жарко 1013.3 1007.6 +32.3
21 18.06 С 3 45 км 4/0
[Ci fib]
+22.3 +17.3 73 +27 +27 душно 1014.3 1008.5
00 19.06 СВ 5 30 км 4/0
[Ci fib]
+22.0 +18.3 80 +27 +27 душно 1014.0 1008.2
03 19.06 штиль 0 35 км ясно +20.4 +18.5 89 +24 +25 комфорт 1014.0 1008.2
06 19.06 СВ 3 40 км ясно +27.0 +18.7 60 +32 +39 очень
душно
1014.2 1008.5 +20.0
09 19.06 С 4 50 км 4/4 1000 м
[Cu med, cong]
+29.6 +17.1 47 +33 +41 душно 1013.7 1008.1
12 19.06 СВ 4 50 км 5/3 1000 м
[Cb calv Ci fib]
+30.7 +14.7 38 +33 +40 душно 1012.5 1006.9
15 19.06 СВ 4 50 км 4/3 1000 м
[Cb calv Ci fib]
+13.4 +15.4 100 +12 +13 очень
холодно
1011.4 1005.8
18 19.06 СВ 4 50 км 3/0
[Ci fib]
+25.4 +16.5 58 +29 +29 душно 1011.9 1006.2 +33.0
21 19.06 СВ 5 45 км ясно +23.5 +15.9 62 +27 +27 душно 1012.3 1006.6
00 20.06 С 4 50 км 3/0
[As op]
+21.1 +17.0 77 +25 +25 комфорт 1012.4 1006.6
03 20.06 С 3 40 км 3/0
[Ci fib]
+20.4 +16.8 80 +24 +24 комфорт 1012.4 1006.6
06 20.06 СВ 3 45 км 3/0
[Ci fib]
+26.6 +17.5 57 +31 +37 душно 1012.1 1006.4 +19.6
09 20.06 В 5 50 км 4/4 1000 м
[Cu med, cong]
+31.0 +16.1 41 +34 +40 душно 1011.6 1006.0
12 20.06 В 4 50 км 6/3 1000 м
[Cb calv Ci fib]
+32.8 +15.3 35 +35 +41 душно 1010.6 1005.1
15 20.06 В 6 50 км 8/4 600 м
[Cb calv Ac trans]
+31.4 +14.1 35 +33 +34 жарко 1010.6 1005.0
18 20.06 В 2 35 км 5/0
[Ac trans Ci fib]
+27.8 +17.1 52 +32 +32 душно 1011.4 1005.8 +34.0
21 20.06 СВ 5 30 км 4/0
[Ac trans]
+22.2 +14.6 62 +26 +26 душно 1012.1 1006.3

 

Местоположение метеостанции Николаев (Николаевская область, Украина): широта 47.03 долгота 31.95 высота над уровнем моря 50 м.

В архиве по умолчанию представлена погода в Николаеве за последнюю неделю. Архивные данные за месяц целиком и за предыдущие месяцы, начиная с января 2011 года, Вы можете получить, выбрав интересующий диапазон дат из раскрывающегося списка и нажав кнопку "Ввод!".


*Определитесь, кто Вы:
робот инопланетянин человек

Внимание! Время в таблицах - всемирное. Для получения местного времени необходимо прибавить поправку, которая равна 2 ч.

Смотрите также архив погоды в соседних городах и на ближайших метеорологических станциях:

Погода в Очакове (Николаевская область, Украина) (54 км)
Погода в Баштанке (Николаевская область, Украина) (59 км)
Погода в Херсоне (Херсонская область, Украина) (65 км)
Погода в Вознесенске (Николаевская область, Украина) (76 км)
Погода в Бехтерах (Херсонская область, Украина) (91 км)
Погода в Сербке (Одесская область, Украина) (91 км)
Погода в Великой Александровке (Херсонская область, Украина) (106 км)
Погода в Новой Каховке (Херсонская область, Украина) (111 км)
Погода в Одессе (Одесская область, Украина) (112 км)
Погода в Бобринце (Кировоградская область, Украина) (117 км)

Пояснения к столбцам:

Ветер - указаны скорость ветра в м/с - средняя за 10 мин, порывы в срок и между сроками (в фигурных скобках) и направление, откуда дует ветер: С - северный, СВ - северо-восточный, В - восточный, ЮВ - юго-восточный, Ю - южный, ЮЗ - юго-западный, З - западный, СЗ - северо-западный.
Видимость - горизонтальная дальность видимости в метрах или километрах. При видимости от 1 до 10 км при отсутствии осадков обычно наблюдается дымка, при ухудшении видимости до 1 км и менее - туман. В сухую погоду видимость может ухудшаться дымом, пылью или мглою.
Явления - указаны атмосферные явления, наблюдавшиеся в срок или в последний час перед сроком; фигурными скобками обозначены явления, наблюдавшиеся между сроками (за 1-3 часа до срока); квадратными скобками обозначены град или гололедные отложения с указанием их диаметра в мм.
Облачность - указаны через наклонную черту общая и нижняя облачность в баллах и высота нижней границы облаков в метрах; квадратными скобками обозначены формы облаков: Ci - перистые, Cs - перисто-слоистые, Cc - перисто-кучевые, Ac - высококучевые, As - высокослоистые, Sc - слоисто-кучевые, Ns - слоисто-дождевые, Cu - кучевые, Cb - кучево-дождевые. Подробнее классификацию облаков см. в Атласе облаков (PDF).
T - Температура воздуха - температура, измеренная на высоте 2 м над землей.
Td - Температура точки росы - температура, при понижении до которой содержащийся в воздухе водяной пар достигнет насыщения.
f - Относительная влажность воздуха - влажноcть воздуха, измеренная на высоте 2 м над землей.
Te - Эффективная температура - температура, которую ощущает одетый по сезону человек в тени. Характеристика душности погоды. При расчете учитывается влияние влажности воздуха и скорости ветра на теплоощущения человека.
Tes - Эффективная температура на солнце - температура, которую ощущает человек, с поправкой на солнечный нагрев. Характеристика знойности погоды. Зависит от высоты солнца над горизонтом, облачности и скорости ветра. Ночью, в пасмурную погоду, а также при ветре 12 м/с и более поправка равна нулю.
P - Атмосферное давление - приведенное к уровню моря атмосферное давление.
Po - Атмосферное давление - измеренное на уровне метеостанции атмосферное давление.
Tmin - Минимальная температура - минимум температуры воздуха на высоте 2 м над землей.
Tmax - Максимальная температура - максимум температуры воздуха на высоте 2 м над землей.
R - Количество осадков - Количество выпавших осадков за период времени, мм. При наведении курсора мыши на число - период времени, за который выпало указанное количество осадков.
R24 - Количество осадков - Количество выпавших осадков за 24 часа, мм.
S - Снежный покров - Высота снежного покрова, см. При наведении курсора мыши на число - состояние снежного покрова и степень покрытия местности в баллах.